Вернуться в каталог

SOLRAD 1

GREB

АктивенНаукаLEO
NORAD 46·PAYLOAD·🇺🇸 United States

Запущен Jun 22, 1960 с Cape Canaveral Space Force Station

Loading…

Ближайшие Пролёты (ближайшие 24 часа)

TLE

СвежийSource: Space-Track

Эпоха: Sep 14, 2026, 14:52 UTC

1 00046U 60007B   26257.62010077  .00000739  00000-0  15234-3 0  9995
2 00046  66.6903 344.3847 0200257 227.6067 130.7949 14.54979999470012

Отслеживайте SOLRAD 1 в реальном времени с AllMySat

Download on the App Store